Hourly Weather Klagenfurt

Today, 11 July, Saturday

Time Temperature Precipitation Wind Pressure Humidity
00:00 +15°C° 0 mm 1 mps 690 mmHg 73%
01:00 +15°C° 0 mm 1 mps 690 mmHg 73%
02:00 +15°C° 0 mm 1 mps 689 mmHg 74%
03:00 +14°C° 0 mm 1 mps 689 mmHg 76%
04:00 +13°C° 0 mm 0 mps 689 mmHg 77%
05:00 +15°C° 0.2 mm 1 mps 689 mmHg 78%
06:00 +18°C° 0.2 mm 1 mps 690 mmHg 78%
07:00 +19°C° 0.2 mm 1 mps 690 mmHg 79%
08:00 +20°C° 0.1 mm 1 mps 691 mmHg 75%
09:00 +22°C° 0.1 mm 1 mps 691 mmHg 71%
10:00 +23°C° 0.1 mm 1 mps 692 mmHg 67%
11:00 +23°C° 0.7 mm 1 mps 692 mmHg 72%
12:00 +23°C° 0.7 mm 1 mps 692 mmHg 78%
13:00 +23°C° 0.7 mm 1 mps 692 mmHg 83%
14:00 +21°C° 1.4 mm 1 mps 692 mmHg 86%
15:00 +18°C° 1.4 mm 2 mps 692 mmHg 90%
16:00 +15°C° 1.4 mm 2 mps 691 mmHg 94%
17:00 +15°C° 1.1 mm 2 mps 692 mmHg 95%
18:00 +14°C° 1.1 mm 2 mps 692 mmHg 96%
19:00 +13°C° 1.1 mm 2 mps 692 mmHg 96%
20:00 +12°C° 3.1 mm 1 mps 693 mmHg 97%
21:00 +12°C° 3.1 mm 1 mps 693 mmHg 97%
22:00 +11°C° 3.1 mm 1 mps 693 mmHg 97%
23:00 +11°C° 0.8 mm 1 mps 693 mmHg 97%

Tomorrow, 12 July, Sunday

Time Temperature Precipitation Wind Pressure Humidity
00:00 +10°C° 0.8 mm 1 mps 693 mmHg 97%
01:00 +10°C° 0.8 mm 1 mps 693 mmHg 97%
02:00 +9°C° 0 mm 1 mps 693 mmHg 96%
03:00 +9°C° 0 mm 1 mps 693 mmHg 96%
04:00 +9°C° 0 mm 1 mps 693 mmHg 96%
05:00 +10°C° 0 mm 1 mps 693 mmHg 95%
06:00 +11°C° 0 mm 1 mps 694 mmHg 93%
07:00 +13°C° 0 mm 1 mps 694 mmHg 91%
08:00 +15°C° 0 mm 1 mps 695 mmHg 79%
09:00 +18°C° 0 mm 1 mps 695 mmHg 67%
10:00 +19°C° 0 mm 2 mps 696 mmHg 54%
11:00 +20°C° 0 mm 2 mps 695 mmHg 51%
12:00 +21°C° 0 mm 2 mps 695 mmHg 48%
13:00 +23°C° 0 mm 2 mps 695 mmHg 45%
14:00 +21°C° 0 mm 2 mps 695 mmHg 46%
15:00 +21°C° 0 mm 2 mps 695 mmHg 47%
16:00 +21°C° 0 mm 2 mps 695 mmHg 49%
17:00 +20°C° 0 mm 2 mps 695 mmHg 58%
18:00 +19°C° 0 mm 1 mps 694 mmHg 68%
19:00 +16°C° 0 mm 1 mps 694 mmHg 77%
20:00 +15°C° 0 mm 1 mps 694 mmHg 80%
21:00 +13°C° 0 mm 1 mps 694 mmHg 82%
22:00 +12°C° 0 mm 1 mps 695 mmHg 85%
23:00 +11°C° 0 mm 1 mps 694 mmHg 85%

Day after tomorrow, 13 July, Monday

Time Temperature Precipitation Wind Pressure Humidity
00:00 +11°C° 0 mm 1 mps 694 mmHg 85%
01:00 +10°C° 0 mm 1 mps 694 mmHg 85%
02:00 +10°C° 0 mm 1 mps 694 mmHg 86%
03:00 +9°C° 0 mm 1 mps 693 mmHg 87%
04:00 +9°C° 0 mm 1 mps 693 mmHg 87%
05:00 +11°C° 0 mm 1 mps 693 mmHg 83%
06:00 +12°C° 0 mm 1 mps 694 mmHg 78%
07:00 +14°C° 0 mm 1 mps 694 mmHg 73%
08:00 +16°C° 0 mm 1 mps 694 mmHg 65%
09:00 +19°C° 0 mm 1 mps 694 mmHg 58%
10:00 +19°C° 0 mm 2 mps 694 mmHg 50%
11:00 +20°C° 0 mm 2 mps 694 mmHg 47%
12:00 +21°C° 0 mm 2 mps 694 mmHg 44%
13:00 +23°C° 0 mm 2 mps 694 mmHg 41%
14:00 +23°C° 0 mm 2 mps 693 mmHg 43%
15:00 +23°C° 0 mm 2 mps 693 mmHg 44%
16:00 +23°C° 0 mm 2 mps 692 mmHg 45%
17:00 +21°C° 0 mm 1 mps 692 mmHg 55%
18:00 +19°C° 0 mm 1 mps 692 mmHg 64%
19:00 +18°C° 0 mm 1 mps 692 mmHg 74%
20:00 +15°C° 0 mm 1 mps 691 mmHg 76%
21:00 +14°C° 0 mm 1 mps 691 mmHg 78%
22:00 +12°C° 0 mm 1 mps 691 mmHg 80%
23:00 +12°C° 0 mm 1 mps 691 mmHg 80%

14 July, Tuesday

Time Temperature Precipitation Wind Pressure Humidity
00:00 +12°C° 0 mm 1 mps 691 mmHg 81%
01:00 +11°C° 0 mm 1 mps 691 mmHg 81%
02:00 +11°C° 0 mm 1 mps 690 mmHg 82%
03:00 +10°C° 0 mm 1 mps 690 mmHg 83%
04:00 +10°C° 0 mm 1 mps 690 mmHg 84%
05:00 +11°C° 0 mm 0 mps 690 mmHg 79%
06:00 +13°C° 0 mm 0 mps 691 mmHg 75%
07:00 +14°C° 0 mm 0 mps 691 mmHg 70%
08:00 +18°C° 0 mm 1 mps 691 mmHg 64%
09:00 +20°C° 0 mm 1 mps 691 mmHg 58%
10:00 +21°C° 0 mm 1 mps 692 mmHg 52%
11:00 +21°C° 0 mm 2 mps 691 mmHg 51%
12:00 +21°C° 0 mm 2 mps 691 mmHg 51%
13:00 +23°C° 0 mm 2 mps 691 mmHg 50%
14:00 +23°C° 0.1 mm 2 mps 691 mmHg 52%
15:00 +23°C° 0.1 mm 2 mps 691 mmHg 54%
16:00 +21°C° 0.1 mm 2 mps 690 mmHg 56%
17:00 +21°C° 0.3 mm 1 mps 690 mmHg 65%
18:00 +19°C° 0.3 mm 1 mps 690 mmHg 73%
19:00 +16°C° 0.3 mm 0 mps 690 mmHg 82%
20:00 +15°C° 0.1 mm 0 mps 690 mmHg 82%
21:00 +14°C° 0.1 mm 0 mps 690 mmHg 83%
22:00 +13°C° 0.1 mm 0 mps 690 mmHg 83%
23:00 +13°C° 0 mm 0 mps 690 mmHg 84%

15 July, Wednesday

Time Temperature Precipitation Wind Pressure Humidity
00:00 +12°C° 0 mm 0 mps 690 mmHg 84%
01:00 +12°C° 0 mm 0 mps 689 mmHg 84%
02:00 +11°C° 0 mm 0 mps 689 mmHg 85%
03:00 +11°C° 0 mm 0 mps 689 mmHg 86%
04:00 +11°C° 0 mm 0 mps 689 mmHg 87%
05:00 +12°C° 0 mm 0 mps 689 mmHg 84%
06:00 +14°C° 0 mm 0 mps 690 mmHg 81%
07:00 +16°C° 0 mm 0 mps 690 mmHg 78%
08:00 +17°C° 0.1 mm 0 mps 690 mmHg 71%
09:00 +21°C° 0.1 mm 1 mps 691 mmHg 64%
10:00 +23°C° 0.1 mm 1 mps 691 mmHg 57%
11:00 +23°C° 0.3 mm 1 mps 691 mmHg 56%
12:00 +24°C° 0.3 mm 1 mps 691 mmHg 55%
13:00 +25°C° 0.3 mm 1 mps 691 mmHg 53%
14:00 +24°C° 0.2 mm 1 mps 691 mmHg 56%
15:00 +23°C° 0.2 mm 1 mps 691 mmHg 59%
16:00 +23°C° 0.2 mm 1 mps 691 mmHg 63%
17:00 +21°C° 0.1 mm 1 mps 690 mmHg 70%
18:00 +20°C° 0.1 mm 1 mps 690 mmHg 78%
19:00 +16°C° 0.1 mm 0 mps 690 mmHg 85%
20:00 +15°C° 0 mm 0 mps 690 mmHg 87%
21:00 +15°C° 0 mm 0 mps 691 mmHg 89%
22:00 +14°C° 0 mm 0 mps 691 mmHg 90%
23:00 +13°C° 0 mm 0 mps 691 mmHg 91%

16 July, Thursday

Time Temperature Precipitation Wind Pressure Humidity
00:00 +13°C° 0 mm 0 mps 691 mmHg 92%
01:00 +13°C° 0 mm 0 mps 691 mmHg 92%
02:00 +12°C° 0 mm 0 mps 691 mmHg 93%
03:00 +12°C° 0 mm 0 mps 690 mmHg 94%
04:00 +11°C° 0 mm 0 mps 690 mmHg 94%
05:00 +13°C° 0 mm 0 mps 691 mmHg 91%
06:00 +14°C° 0 mm 0 mps 691 mmHg 88%
07:00 +16°C° 0 mm 0 mps 692 mmHg 84%
08:00 +20°C° 0 mm 1 mps 692 mmHg 76%
09:00 +22°C° 0 mm 1 mps 692 mmHg 68%
10:00 +23°C° 0 mm 1 mps 693 mmHg 60%
11:00 +24°C° 0.2 mm 1 mps 693 mmHg 61%
12:00 +24°C° 0.2 mm 1 mps 692 mmHg 61%
13:00 +24°C° 0.2 mm 1 mps 692 mmHg 62%
14:00 +24°C° 0.4 mm 1 mps 692 mmHg 65%
15:00 +24°C° 0.4 mm 1 mps 692 mmHg 68%
16:00 +23°C° 0.4 mm 1 mps 691 mmHg 71%
17:00 +22°C° 0.7 mm 1 mps 691 mmHg 78%
18:00 +21°C° 0.7 mm 1 mps 691 mmHg 84%
19:00 +18°C° 0.7 mm 0 mps 691 mmHg 91%
20:00 +17°C° 0.5 mm 0 mps 691 mmHg 92%
21:00 +16°C° 0.5 mm 0 mps 691 mmHg 93%
22:00 +15°C° 0.5 mm 0 mps 691 mmHg 94%
23:00 +16°C° 3 mm 1 mps 691 mmHg 95%
Show more